Regional Weather Roundup
Issued by NWS Kansas City/Pleasant Hill, MO

Home | Current Version | Previous Version | Graphics & Text | Print | Product List | Glossary Off
Versions: 1 2 3 4 5 6 7 8 9 10 11 12 13 14 15 16 17 18 19 20 21 22 23 24 25 26 27 28 29 30 31 32 33 34 35 36 37 38 39 40 41 42 43 44 45 46 47 48 49 50

674
ASUS43 KEAX 200810
RWREAX

WEATHER ROUNDUP FOR EASTERN KANSAS AND NORTHWEST MISSOURI
NATIONAL WEATHER SERVICE KANSAS CITY/PLEASANT HILL MO
300 AM CDT SUN AUG 20 2017

KSZ040-057-103>105-MOZ028-029-037-043-200900-
...KANSAS CITY METROPOLITAN AREA...

CITY           SKY/WX    TMP DP  RH WIND       PRES   REMARKS
K.C. INTL      PTCLDY    78  74  87 S8        29.92R
K.C. DOWNTOWN  PTCLDY    82  75  79 S7        29.91R
LEES SUMMIT    CLOUDY    79  74  84 SW9       29.94R
OLATHE - IXD   CLOUDY    78  73  84 S8        29.94R
OLATHE - OJC   CLOUDY    77  74  90 S7        29.94R
LAWRENCE       CLOUDY    79  76  90 S6        29.91R

$$

MOZ001>008-011>017-020>025-030>033-038>040-044>046-053-054-200900-
...NORTHERN AND CENTRAL MISSOURI...

CITY           SKY/WX    TMP DP  RH WIND       PRES   REMARKS
ST. JOSEPH     CLOUDY    76  74  93 SE6       29.90R
WARRENSBURG    CLEAR     73  70  88 S5        29.92R
WHITEMAN AFB   CLEAR     75  75 100 SW9       29.92S
CLINTON        CLOUDY    75  73  94 S5        29.93S
SEDALIA        CLOUDY    73  72  96 S6        29.95S
WARSAW         NOT AVBL
CHILLICOTHE      N/A     74  69  85 CALM      29.95R
KIRKSVILLE     CLOUDY    61  58  90 SW3       29.96R

$$

MOZ041-047>049-056>058-063>065-088>090-097-200900-
...EASTERN AND SOUTHERN MISSOURI...

CITY           SKY/WX    TMP DP  RH WIND       PRES   REMARKS
ST. LOUIS INTL PTCLDY    76  68  76 SE3       29.96F
SPIRIT OF STL  CLEAR     69  69 100 CALM      29.95S
COLUMBIA       CLEAR     72  69  90 SE7       29.95F
JEFFERSON CITY CLEAR     69  69 100 SE3       29.93F
ROLLA          CLEAR     70  68  93 S8        29.98F
OSAGE BEACH    PTCLDY    72  70  93 CALM      29.95F
SPRINGFIELD    CLEAR     76  75  97 S8        29.97F
BRANSON        CLEAR     73  73 100 S3        30.00F
JOPLIN         MOCLDY    81  74  79 S10       29.95F
WEST PLAINS    CLEAR     74  70  87 SW5       30.01F

$$

IAZ060-094-KSZ022-034>040-054-083-096-NEZ052-066-093-200900-
...KANSAS...SOUTHEAST NEBRASKA AND IOWA...

CITY           SKY/WX    TMP DP  RH WIND       PRES   REMARKS
TOPEKA         CLOUDY    81  77  88 S6        29.90R
MANHATTAN      CLOUDY    80  75  84 SW7       29.89R
EMPORIA        CLEAR     78  75  90 S12       29.92R
CHANUTE        CLOUDY    77  66  68 SW22G29   29.95R
WICHITA        PTCLDY    77  71  82 S7        29.91F
OMAHA          TSTM      70  65  84 SW5       29.98R
LINCOLN        TSTM      68  64  87 SE16      29.94F
FALLS CITY     HVY RAIN  69  65  86 N20G41    29.96R FOG
LAMONI         CLOUDY    73  64  73 S8        29.93F
DES MOINES     CLOUDY    71  61  70 S3        29.92R

$$





USA.gov is the U.S. government's official web portal to all federal, state and local government web resources and services.